KLRIVER36 Weather Reports


time (UTC)temp
C
wind
direction
speed
KPH
gust
KPH
rain 1hr
cm
rain 24hr
cm
rain mn
cm
humidity
%
barometer
mb
20260505011605 20 0 0.0 0.0 0.00 0.00 0.00 62 1014.0
20260505011054 20 0 0.0 0.0 0.00 0.00 0.00 61 1014.0
20260505010553 21 0 0.0 0.0 0.00 0.00 0.00 61 1013.9
20260505010051 21 0 0.0 0.0 0.00 0.00 0.00 61 1014.0
20260505005553 21 0 0.0 3.2 0.00 0.00 0.00 60 1014.1
20260505005054 21 0 0.0 3.2 0.00 0.00 0.00 59 1014.3
20260505004555 21 219 0.0 1.6 0.00 0.00 0.00 59 1014.4
20260505004053 21 0 0.0 1.6 0.00 0.00 0.00 59 1014.3
20260505003557 21 0 0.0 3.2 0.00 0.00 0.00 58 1014.2
20260505003055 21 0 0.0 3.2 0.00 0.00 0.00 58 1014.2
20260505002556 21 145 0.0 1.6 0.00 0.00 0.00 57 1014.3
20260505002052 22 0 0.0 3.2 0.00 0.00 0.00 57 1014.3
20260505001604 22 0 0.0 4.8 0.00 0.00 0.00 55 1014.3
20260505001055 22 170 0.0 4.8 0.00 0.00 0.00 55 1014.3
20260505000553 22 150 0.0 3.2 0.00 0.00 0.00 55 1014.2
20260505000136 22 133 0.0 4.8 0.00 0.00 0.00 54 1014.1
20260504235555 22 159 0.0 6.4 0.00 0.00 0.00 54 1014.1
20260504235053 22 124 1.6 6.4 0.00 0.00 0.00 54 1014.2
20260504234611 22 117 1.6 9.7 0.00 0.00 0.00 53 1014.2
20260504234053 22 148 1.6 9.7 0.00 0.00 0.00 52 1014.2
20260504233556 23 134 3.2 9.7 0.00 0.00 0.00 51 1014.4
20260504233104 23 157 1.6 4.8 0.00 0.00 0.00 51 1014.4
20260504232553 23 142 0.0 6.4 0.00 0.00 0.00 50 1014.4
20260504232052 23 139 3.2 8.0 0.00 0.00 0.00 49 1014.4
20260504231557 23 162 1.6 8.0 0.00 0.00 0.00 48 1014.4
20260504231052 24 163 1.6 4.8 0.00 0.00 0.00 49 1014.5
20260504230552 24 176 0.0 4.8 0.00 0.00 0.00 47 1014.7
20260504230053 24 143 0.0 6.4 0.00 0.00 0.00 47 1014.7
20260504225554 24 141 1.6 6.4 0.00 0.00 0.00 47 1014.6
20260504225053 24 333 1.6 6.4 0.00 0.00 0.00 46 1014.6
20260504224609 23 164 1.6 6.4 0.00 0.00 0.00 48 1014.6
20260504224053 24 139 1.6 6.4 0.00 0.00 0.00 46 1014.8
20260504223555 24 0 1.6 16.1 0.00 0.00 0.00 46 1014.9
20260504223100 24 91 3.2 16.1 0.00 0.00 0.00 45 1014.9
20260504222553 24 129 1.6 8.0 0.00 0.00 0.00 45 1015.0
20260504222053 24 146 1.6 8.0 0.00 0.00 0.00 45 1015.1
20260504221556 24 135 1.6 9.7 0.00 0.00 0.00 43 1015.0
20260504221052 24 103 1.6 14.5 0.00 0.00 0.00 44 1015.3
20260504220558 24 113 4.8 14.5 0.00 0.00 0.00 43 1015.2
20260504220059 25 188 1.6 11.3 0.00 0.00 0.00 44 1015.1
20260504215553 25 202 3.2 12.9 0.00 0.00 0.00 44 1015.2
20260504215056 24 196 4.8 12.9 0.00 0.00 0.00 44 1015.1
20260504214553 24 154 3.2 11.3 0.00 0.00 0.00 44 1015.0
20260504214053 24 183 4.8 11.3 0.00 0.00 0.00 44 1015.0
20260504213553 24 228 3.2 9.7 0.00 0.00 0.00 44 1015.0
20260504213125 25 134 1.6 6.4 0.00 0.00 0.00 44 1015.2
20260504212554 24 146 1.6 11.3 0.00 0.00 0.00 44 1015.0
20260504212055 25 136 3.2 11.3 0.00 0.00 0.00 43 1015.3
20260504211559 25 224 1.6 9.7 0.00 0.00 0.00 41 1015.4
20260504211053 25 195 3.2 9.7 0.00 0.00 0.00 41 1015.3
20260504210553 25 143 1.6 9.7 0.00 0.00 0.00 40 1015.1
20260504210058 25 131 1.6 8.0 0.00 0.00 0.00 39 1015.2
20260504205553 25 119 1.6 12.9 0.00 0.00 0.00 39 1015.2
20260504205053 25 89 1.6 12.9 0.00 0.00 0.00 39 1015.4
20260504204556 25 144 3.2 11.3 0.00 0.00 0.00 38 1015.5
20260504204053 25 268 4.8 11.3 0.00 0.00 0.00 39 1015.6
20260504203557 25 105 3.2 11.3 0.00 0.00 0.00 40 1015.7
20260504203117 26 180 1.6 9.7 0.00 0.00 0.00 38 1015.7
20260504202553 26 134 0.0 9.7 0.00 0.00 0.00 39 1015.8
20260504202054 25 189 4.8 9.7 0.00 0.00 0.00 38 1015.9
20260504201552 26 162 1.6 9.7 0.00 0.00 0.00 38 1016.1
20260504201057 26 0 1.6 9.7 0.00 0.00 0.00 39 1016.2
20260504200556 26 186 3.2 9.7 0.00 0.00 0.00 38 1016.4
20260504200057 26 174 4.8 11.3 0.00 0.00 0.00 37 1016.5
20260504195601 26 149 1.6 11.3 0.00 0.00 0.00 38 1016.6
20260504195059 26 117 3.2 8.0 0.00 0.00 0.00 37 1016.7
20260504194604 26 169 1.6 14.5 0.00 0.00 0.00 38 1016.7
20260504194056 26 173 1.6 14.5 0.00 0.00 0.00 39 1016.8
20260504193554 26 195 1.6 11.3 0.00 0.00 0.00 36 1016.9
20260504193111 26 163 4.8 12.9 0.00 0.00 0.00 38 1016.8
20260504192552 26 160 1.6 12.9 0.00 0.00 0.00 38 1016.9
20260504192053 26 157 1.6 9.7 0.00 0.00 0.00 38 1017.2
20260504191555 26 162 4.8 11.3 0.00 0.00 0.00 39 1017.0
20260504191054 25 204 4.8 11.3 0.00 0.00 0.00 39 1016.9
20260504190557 25 185 3.2 12.9 0.00 0.00 0.00 39 1017.0
20260504190115 25 179 4.8 12.9 0.00 0.00 0.00 39 1017.3
20260504185554 25 96 6.4 12.9 0.00 0.00 0.00 39 1017.3
20260504185053 25 201 4.8 11.3 0.00 0.00 0.00 40 1017.3
20260504184606 25 186 4.8 11.3 0.00 0.00 0.00 40 1017.4
20260504184053 25 150 4.8 14.5 0.00 0.00 0.00 41 1017.3
20260504183559 25 141 6.4 14.5 0.00 0.00 0.00 41 1017.5
20260504183056 25 191 3.2 9.7 0.00 0.00 0.00 41 1017.5
20260504182557 25 203 4.8 12.9 0.00 0.00 0.00 41 1017.6
20260504182055 25 161 4.8 12.9 0.00 0.00 0.00 43 1017.5
20260504181555 25 182 3.2 9.7 0.00 0.00 0.00 42 1017.5
20260504181054 24 113 4.8 9.7 0.00 0.00 0.00 42 1017.5
20260504180553 24 179 4.8 9.7 0.00 0.00 0.00 42 1017.5
20260504180055 25 129 3.2 12.9 0.00 0.00 0.00 42 1017.6
20260504175556 25 162 1.6 12.9 0.00 0.00 0.00 42 1017.5
20260504175057 24 179 4.8 14.5 0.00 0.00 0.00 43 1017.4
20260504174602 25 203 3.2 14.5 0.00 0.00 0.00 42 1017.6
20260504174053 24 178 3.2 9.7 0.00 0.00 0.00 42 1017.7
20260504173552 25 160 3.2 11.3 0.00 0.00 0.00 43 1017.7
20260504173058 24 171 1.6 14.5 0.00 0.00 0.00 45 1017.6
20260504172555 24 205 4.8 14.5 0.00 0.00 0.00 45 1017.7
20260504172101 24 180 1.6 14.5 0.00 0.00 0.00 44 1017.5
20260504171555 24 46 4.8 14.5 0.00 0.00 0.00 46 1017.7
20260504171057 24 163 4.8 12.9 0.00 0.00 0.00 44 1017.7
20260504170554 23 180 4.8 12.9 0.00 0.00 0.00 45 1017.7
20260504151053 22 190 1.6 6.4 0.00 0.00 0.00 47 1018.4
20260504150553 23 0 0.0 4.8 0.00 0.00 0.00 49 1018.4
20260504141056 20 205 0.0 3.2 0.00 0.00 0.00 59 1018.5
20260504140556 20 0 0.0 3.2 0.00 0.00 0.00 60 1018.4
20260504140109 20 224 0.0 3.2 0.00 0.00 0.00 60 1018.5
20260504130555 17 243 0.0 1.6 0.00 0.00 0.00 72 1018.6
20260504110554 12 0 0.0 0.0 0.00 0.00 0.00 86 1017.7
20260504110117 12 0 0.0 0.0 0.00 0.00 0.00 86 1017.6
20260504100555 13 0 0.0 0.0 0.00 0.00 0.00 83 1017.8
20260504100104 13 0 0.0 0.0 0.00 0.00 0.00 84 1018.0
20260504090119 13 0 0.0 0.0 0.00 0.00 0.00 84 1018.1
20260504081556 13 0 0.0 0.0 0.00 0.00 0.00 83 1017.7
20260504081054 13 0 0.0 0.0 0.00 0.00 0.00 82 1017.8
20260504080556 13 0 0.0 0.0 0.00 0.00 0.00 81 1017.9
20260504060103 15 0 0.0 0.0 0.00 0.00 0.00 76 1019.1
20260504050554 16 0 0.0 0.0 0.00 0.00 0.00 72 1019.4
20260504050107 16 0 0.0 0.0 0.00 0.00 0.00 71 1019.5
20260504045557 16 0 0.0 0.0 0.00 0.00 0.00 71 1019.5
20260504045054 16 0 0.0 1.6 0.00 0.00 0.00 70 1019.5
20260504044603 17 0 0.0 3.2 0.00 0.00 0.00 70 1019.5
20260504044054 17 0 0.0 3.2 0.00 0.00 0.00 69 1019.6
20260504043555 17 0 0.0 3.2 0.00 0.00 0.00 69 1019.6
20260504043056 17 0 0.0 3.2 0.00 0.00 0.00 69 1019.7
20260504042554 17 205 0.0 3.2 0.00 0.00 0.00 70 1019.6
20260504042053 17 0 0.0 3.2 0.00 0.00 0.00 70 1019.6
20260504041556 17 213 1.6 3.2 0.00 0.00 0.00 70 1019.7
20260504041053 17 218 1.6 3.2 0.00 0.00 0.00 70 1019.8
20260504040553 17 195 0.0 3.2 0.00 0.00 0.00 70 1019.7
20260504040108 17 195 0.0 4.8 0.00 0.00 0.00 70 1019.7
20260504035555 17 0 1.6 4.8 0.00 0.00 0.00 70 1019.6
20260504035055 17 193 1.6 4.8 0.00 0.00 0.00 70 1019.7
20260504034603 17 191 0.0 3.2 0.00 0.00 0.00 69 1019.6
20260504034054 17 0 0.0 3.2 0.00 0.00 0.00 69 1019.6
20260504033554 17 188 0.0 3.2 0.00 0.00 0.00 70 1019.6
20260504033113 16 0 0.0 1.6 0.00 0.00 0.00 70 1019.6
20260504032556 16 0 0.0 1.6 0.00 0.00 0.00 70 1019.7
20260504032054 17 0 0.0 0.0 0.00 0.00 0.00 69 1019.6
20260504031556 17 0 0.0 0.0 0.00 0.00 0.00 68 1019.7
20260504031054 17 0 0.0 0.0 0.00 0.00 0.00 67 1019.7
20260504030555 17 0 0.0 0.0 0.00 0.00 0.00 67 1019.6
20260504030056 17 0 0.0 0.0 0.00 0.00 0.00 66 1019.5
20260504025552 17 0 0.0 0.0 0.00 0.00 0.00 66 1019.5
20260504025053 17 0 0.0 0.0 0.00 0.00 0.00 66 1019.5
20260504024605 17 0 0.0 0.0 0.00 0.00 0.00 65 1019.5
20260504024052 17 0 0.0 0.0 0.00 0.00 0.00 64 1019.5
20260504023553 18 0 0.0 0.0 0.00 0.00 0.00 64 1019.4
20260504023055 18 0 0.0 0.0 0.00 0.00 0.00 63 1019.3
20260504022552 18 0 0.0 0.0 0.00 0.00 0.00 64 1019.4
20260504022053 18 0 0.0 0.0 0.00 0.00 0.00 62 1019.4
20260504021554 18 0 0.0 0.0 0.00 0.00 0.00 62 1019.3
20260504021054 18 0 0.0 0.0 0.00 0.00 0.00 61 1019.2
20260504020553 18 0 0.0 0.0 0.00 0.00 0.00 61 1019.2
20260504020057 18 0 0.0 0.0 0.00 0.00 0.00 60 1019.1
20260504015553 18 0 0.0 0.0 0.00 0.00 0.00 61 1018.9
20260504015056 18 0 0.0 0.0 0.00 0.00 0.00 60 1019.0
20260504014558 18 0 0.0 0.0 0.00 0.00 0.00 58 1018.9
20260504014053 18 0 0.0 3.2 0.00 0.00 0.00 58 1019.0
20260504013552 18 0 0.0 3.2 0.00 0.00 0.00 58 1018.9
20260504013053 18 0 0.0 3.2 0.00 0.00 0.00 57 1018.8
20260504012552 19 0 0.0 1.6 0.00 0.00 0.00 55 1018.8
20260504012052 19 0 0.0 1.6 0.00 0.00 0.00 55 1018.7